Retour au catalogue

STARLINK-37114

ActifCommunicationsVLEO
NORAD 68561·PAYLOAD·🇺🇸 United States

Lancé Apr 2, 2026 depuis Cape Canaveral Space Force Station

Loading…

Prochains Passages (prochaines 24 heures)

TLE

FraisSource: CelesTrak SupGP

Époque: Sep 15, 2026, 03:58 UTC

1 68561C 26070V   26258.16576389  .00009415  00000+0  27803-3 0  2588
2 68561  53.1581 198.4502 0001253  77.5125 195.7213 15.34399700    18

Suivez STARLINK-37114 en temps réel avec AllMySat

Download on the App Store